Dewpoint
19 20 20 21 21 21 21 21 22 21 21 21 21 21 21 22 22 22 24 24 23 22 22 21 21 21 21 25 28 30 31 31 31 32 32 33 33 33 34 34 34 34 34 34 34 34 34 34 34 34 35 37 39 39 37 35 34 34 34 35 37 40 42 44 44 45 44 43 42 41 41 42 43 44 45 46 46 46 46 47 47 48 48 48 48 49
20 21 22 23 23 23 23 23 23 23 22 21 20 20 20 20 20 21 21 22 22 22 21 20 19 19 18 22 27 30 31 31 32 32 33 33 33 33 33 34 34 34 34 34 34 34 34 34 34 36 38 39 39 38 36 34 34 34 34 35 36 38 40 43 44 45 45 44 43 43 42 43 43 44 45 45 45 46 46 47 47 48 48 48 48 48
22 23 24 25 25 24 23 23 23 22 21 20 19 19 19 19 20 21 21 22 21 21 19 19 19 19 19 22 26 30 32 32 32 32 32 32 33 33 33 33 33 33 34 33 33 33 33 34 35 37 39 39 38 36 35 34 34 34 34 35 36 37 39 41 43 45 45 45 45 44 43 43 43 43 44 44 45 46 46 47 48 48 48 48 48 48
24 24 23 23 22 22 21 21 21 20 20 20 20 20 20 20 21 22 23 22 21 20 19 18 19 19 21 23 26 30 32 32 32 32 32 32 32 32 32 32 32 32 33 32 32 32 33 34 36 37 38 37 36 35 34 34 34 34 34 35 36 38 39 42 43 44 45 45 45 45 44 43 43 43 44 44 45 46 46 47 47 48 48 48 48 48
23 21 21 20 19 19 19 20 20 20 21 21 21 21 21 21 23 24 24 23 22 21 20 20 21 21 21 23 25 28 31 31 31 31 31 31 31 32 32 32 32 32 32 32 32 33 33 34 35 36 35 34 34 34 33 33 34 35 36 38 39 40 42 43 43 43 44 45 45 46 45 44 44 43 44 44 45 46 46 46 46 47 47 47 48 48
20 19 19 19 19 19 20 21 21 21 21 21 22 22 22 23 23 24 24 23 23 23 22 22 22 21 21 22 24 26 29 30 30 30 30 30 31 31 31 32 32 33 34 34 34 33 34 34 34 34 34 33 33 33 33 34 36 38 39 39 40 41 41 42 42 43 43 43 44 45 45 45 45 45 44 45 45 45 45 45 45 45 46 46 47 47
20 21 22 22 22 22 22 22 22 23 22 22 23 23 23 24 24 24 24 24 24 24 23 22 21 20 19 20 21 24 25 26 27 28 29 30 30 31 32 33 34 34 35 34 34 33 33 33 33 33 33 33 33 34 35 38 39 40 40 40 40 40 40 41 42 42 42 42 42 43 43 44 45 45 45 45 45 44 44 44 44 44 45 46 47 48
23 24 25 25 25 24 23 23 23 24 24 23 23 23 23 25 25 26 25 25 23 21 20 20 19 18 16 16 18 20 20 21 22 23 25 26 29 31 33 34 34 34 33 32 31 31 32 32 33 33 34 34 34 36 37 39 39 40 40 39 39 40 40 41 42 42 42 41 41 41 41 43 43 44 44 44 43 43 43 43 43 43 44 45 48 49
25 26 26 25 24 23 23 24 24 24 25 24 25 25 26 27 27 27 25 22 20 19 18 17 17 17 16 16 16 17 19 21 21 21 22 23 25 28 30 31 30 30 29 30 30 31 32 33 34 34 34 35 35 36 36 37 38 39 38 37 37 37 38 39 40 40 40 39 40 40 41 42 43 43 43 43 43 43 43 43 43 43 43 45 47 48
27 26 25 24 24 24 25 24 24 25 26 27 29 30 30 29 26 24 21 19 18 18 18 18 17 17 17 17 17 18 20 22 24 25 26 26 26 27 27 26 26 26 28 30 31 32 33 34 34 35 35 35 35 35 36 36 36 36 34 34 34 34 35 36 37 37 38 38 39 40 41 42 42 43 42 42 42 43 43 44 44 44 44 45 46 47
26 25 23 24 25 26 27 25 25 26 28 30 32 31 30 27 24 21 19 19 19 19 19 19 18 18 17 17 18 18 20 21 22 24 25 26 26 27 26 26 27 28 30 31 32 33 34 34 34 35 35 35 34 34 34 35 34 33 32 32 33 34 35 36 36 36 37 38 39 40 41 42 43 43 42 42 42 42 43 43 44 44 45 45 46 47
26 25 25 25 26 27 27 27 29 30 32 31 29 26 24 22 21 20 21 20 20 20 19 19 19 19 19 18 18 18 19 18 17 16 17 19 21 22 24 25 26 29 30 31 32 33 33 34 34 34 34 34 33 34 34 33 33 32 32 33 34 35 35 35 36 36 38 39 39 41 42 42 43 42 42 41 41 42 42 43 43 44 44 45 46 47
25 25 26 27 26 26 26 27 29 30 30 28 25 23 21 21 21 22 22 21 21 21 20 19 19 19 19 19 18 17 16 15 13 13 15 16 19 21 23 25 25 27 28 28 28 29 31 32 32 33 33 33 33 34 34 33 33 32 33 34 34 34 34 35 36 37 39 39 40 40 40 41 41 41 41 42 42 43 43 43 44 44 44 45 45 46
25 25 26 25 25 24 24 25 27 27 25 23 22 22 22 23 23 23 22 21 21 21 20 19 18 18 18 18 17 16 15 13 13 15 19 21 24 26 26 26 26 26 26 26 27 28 30 30 30 30 32 32 33 34 34 33 33 33 34 34 34 34 34 35 36 37 38 38 39 39 39 39 38 39 39 40 41 42 43 44 45 45 46 45 46 46
26 26 25 24 22 22 22 23 23 23 22 21 22 23 24 23 23 22 21 20 20 19 19 18 18 17 16 16 15 15 14 15 18 21 24 26 27 27 26 26 26 26 26 25 26 26 28 28 28 29 30 31 32 32 33 33 33 34 34 34 34 34 34 36 37 37 38 38 38 38 38 37 36 36 36 37 38 39 40 43 44 46 47 46 46 46
27 26 24 23 21 21 21 21 21 21 21 22 23 24 24 23 22 21 20 19 18 17 17 16 16 16 16 15 15 16 17 21 23 24 23 23 24 24 24 25 24 24 24 24 25 25 25 26 28 29 29 30 32 33 33 34 34 35 35 34 34 34 35 36 37 37 37 38 38 38 37 37 36 37 37 38 38 38 39 40 42 43 45 46 46 46
26 24 22 21 20 20 20 20 20 21 22 23 24 24 23 23 21 20 19 18 17 17 16 17 17 16 15 15 15 17 20 22 22 22 21 21 21 22 24 23 23 23 23 24 24 25 26 27 27 27 27 29 31 33 34 36 36 35 34 34 34 34 34 35 36 36 37 38 38 38 38 38 38 39 41 42 42 41 40 40 40 41 43 44 45 45
24 22 21 20 19 19 19 20 21 22 23 23 24 24 23 22 21 19 18 17 17 18 19 19 18 16 15 15 16 18 21 22 23 22 21 21 21 22 23 23 23 23 24 25 26 27 28 27 26 26 28 32 34 36 36 35 34 33 32 32 33 33 34 35 36 37 38 38 38 37 37 38 39 41 43 43 42 41 41 41 40 40 41 41 43 44
21 20 19 19 19 19 19 20 21 21 22 24 24 24 22 20 19 18 18 19 20 21 21 20 18 16 16 16 17 19 22 23 24 23 22 22 21 21 22 23 25 25 26 27 28 29 29 28 28 30 33 34 35 34 34 32 32 31 32 32 33 34 35 36 37 37 37 37 36 36 36 36 37 38 39 38 38 38 38 39 40 41 41 41 42 43
20 19 19 19 19 20 20 21 22 23 25 26 25 23 21 19 18 19 20 22 23 23 21 19 17 16 16 17 19 21 23 24 24 24 23 22 22 22 23 25 27 28 29 30 30 30 30 29 29 30 32 32 32 31 31 31 31 32 32 33 34 35 37 37 37 36 36 36 36 35 35 34 34 34 33 34 34 35 36 39 40 42 42 42 42 42
20 20 20 20 21 21 21 21 23 25 27 27 25 21 20 20 21 23 25 25 23 21 19 18 17 18 18 19 21 22 24 25 25 24 23 22 22 23 25 28 30 30 30 29 29 30 30 30 29 28 29 30 30 30 31 32 33 34 34 36 36 37 37 36 36 35 35 35 35 34 34 33 32 32 33 34 35 37 38 39 40 41 41 41 41 42
21 21 21 21 21 21 22 23 25 27 27 25 23 21 21 23 25 25 24 22 21 19 19 19 19 20 21 22 23 24 25 26 25 25 24 23 23 25 29 31 31 29 27 27 28 29 29 28 26 26 28 30 31 32 33 33 34 35 36 37 37 36 35 34 34 34 34 34 34 34 34 35 36 38 39 39 39 40 40 40 41 41 41 41 41 41
21 21 21 21 21 21 23 24 25 26 25 25 24 24 26 27 26 25 23 21 20 20 20 20 21 22 23 24 25 26 27 27 27 26 25 24 24 25 29 28 26 25 24 26 27 28 27 26 26 27 30 31 33 33 34 34 35 36 36 36 35 34 33 33 33 33 34 34 35 37 39 40 40 39 38 38 38 38 39 39 39 40 40 40 40 40
21 21 20 20 21 24 25 25 25 26 25 26 27 28 30 28 26 24 22 21 21 21 21 22 22 23 23 24 25 25 27 28 29 28 27 25 25 25 24 23 23 24 25 26 26 25 25 26 28 29 31 33 34 34 34 35 35 35 34 34 33 33 33 33 34 34 34 35 37 39 40 39 38 36 36 36 36 36 37 37 38 38 39 39 39 40
20 20 20 21 25 28 29 29 28 28 27 27 28 28 28 27 25 22 21 21 21 21 21 21 21 21 21 21 21 21 23 26 28 28 27 25 24 22 21 24 25 25 24 24 24 25 26 27 28 30 31 31 33 34 34 34 34 33 33 32 32 33 33 34 34 35 36 37 37 37 36 35 35 34 34 35 35 35 36 37 37 38 38 39 39 39
23 23 24 27 29 31 32 31 30 28 27 27 27 26 25 23 22 21 20 20 20 20 21 21 20 20 19 18 18 19 21 25 27 28 27 25 24 22 22 25 25 24 23 22 23 25 25 26 26 27 28 29 30 31 32 32 32 32 32 32 33 33 34 34 35 36 35 35 34 34 34 34 34 34 35 35 35 36 36 37 37 38 38 38 39 39
28 29 30 31 30 30 29 27 26 26 27 28 28 26 24 22 21 20 19 19 19 20 20 19 19 18 18 17 18 20 23 26 29 29 28 26 25 23 23 23 23 22 21 21 22 23 25 24 25 25 26 27 29 30 30 31 31 32 32 32 33 33 34 34 34 34 33 33 33 33 34 34 34 34 35 35 36 36 37 37 38 38 38 38 38 39
30 30 30 28 27 26 25 25 26 27 28 28 28 27 24 21 20 19 18 18 19 19 19 19 18 18 18 18 19 21 24 25 25 26 28 26 25 23 22 21 21 21 21 21 21 22 24 24 24 25 26 27 29 30 30 31 31 32 32 32 32 33 33 33 32 32 32 32 33 33 34 34 34 34 35 35 36 37 37 38 38 38 38 38 38 38
27 26 25 24 24 24 25 25 26 27 27 27 26 25 24 21 20 19 19 19 19 19 19 19 19 19 20 20 21 21 21 21 22 24 26 24 22 21 20 20 20 20 21 21 21 21 22 23 24 25 25 27 29 30 30 31 31 31 32 32 32 32 32 32 32 32 32 32 33 33 34 34 34 34 35 36 36 37 37 38 38 38 38 39 38 38
21 21 21 21 22 23 24 24 25 25 26 26 25 25 24 21 20 20 19 19 19 19 19 19 20 20 21 21 20 19 17 18 21 24 25 22 20 19 19 19 20 21 21 21 21 20 20 21 24 25 25 26 27 28 29 30 30 30 30 31 31 32 32 32 32 32 32 32 33 33 34 34 34 35 35 36 37 37 38 38 39 39 39 39 39 39
17 17 18 19 20 21 22 23 23 23 23 24 24 23 22 21 21 20 21 21 21 21 21 21 21 21 22 21 19 17 16 17 21 23 22 21 20 19 20 20 21 21 22 22 21 20 19 20 22 24 25 25 25 26 27 28 29 29 29 29 30 30 31 32 32 32 32 32 32 33 34 34 34 35 36 37 37 38 39 39 39 39 40 40 40 39
17 18 18 19 20 21 21 21 21 20 20 21 21 21 21 21 21 21 21 22 23 23 23 22 22 22 22 21 20 18 17 18 21 22 22 21 21 21 21 21 21 21 22 22 22 21 20 21 22 23 24 23 24 25 26 28 29 29 29 29 28 29 30 31 31 31 31 32 32 33 34 34 35 36 37 37 38 39 39 39 40 40 41 40 40 40
18 18 18 20 21 21 21 20 19 18 18 19 19 19 20 21 21 22 23 23 24 24 24 23 22 21 21 21 20 20 19 20 21 23 23 22 21 22 22 21 21 21 21 22 23 23 23 22 22 22 21 21 22 23 25 27 28 29 29 28 28 28 29 30 30 30 30 31 32 33 33 34 35 36 37 37 38 39 40 40 41 42 42 42 41 41
18 19 20 21 21 21 20 19 18 18 18 18 19 19 20 20 21 22 23 24 24 24 24 23 22 22 21 21 20 20 20 20 21 23 24 23 22 22 22 22 21 21 22 22 23 23 23 22 21 20 19 20 21 23 25 26 27 28 28 28 28 27 28 28 28 28 29 30 30 31 32 34 34 36 37 38 39 39 40 41 42 43 44 44 43 42
18 20 20 21 20 20 19 18 18 18 18 18 19 19 20 20 21 21 22 23 23 23 23 23 23 22 22 21 21 21 20 20 22 24 25 24 24 24 23 22 22 22 22 23 23 23 22 21 20 20 19 20 21 23 24 25 25 26 27 27 27 27 26 27 27 27 28 29 29 30 32 33 34 36 37 38 39 39 40 42 43 45 47 46 45 44
19 20 20 20 19 19 18 17 17 17 17 17 18 19 19 20 21 21 21 22 22 23 23 23 23 23 23 23 23 22 21 22 24 25 26 25 25 25 24 22 22 22 23 24 23 22 21 20 20 21 21 21 21 22 23 23 24 24 24 25 25 25 25 26 27 27 27 28 29 31 32 34 35 36 37 38 39 39 40 41 43 46 48 48 47 45
19 19 20 19 19 18 18 17 16 16 16 16 17 18 19 19 20 21 21 22 23 23 23 24 24 25 25 25 25 24 24 24 25 26 27 26 26 25 25 24 24 25 25 24 22 21 21 21 21 22 22 21 21 21 21 21 21 21 21 22 23 24 25 26 27 27 28 29 30 32 34 34 35 35 36 38 38 39 39 40 42 44 47 48 47 46
19 19 19 19 18 18 17 17 16 16 17 17 17 18 19 19 20 21 21 22 23 23 23 23 23 24 26 26 27 27 26 26 26 27 27 27 27 26 26 25 26 26 25 24 23 22 23 22 22 21 20 20 20 20 20 20 20 21 21 21 22 23 24 25 27 28 30 31 32 34 34 34 35 35 35 36 36 37 37 38 39 41 43 46 47 46
18 18 19 19 19 18 17 17 17 17 17 18 19 20 20 21 21 21 21 21 22 22 22 22 23 23 25 25 26 27 27 27 27 27 28 28 28 28 27 26 25 25 24 24 25 25 25 24 22 21 19 19 19 19 20 20 20 20 20 21 21 22 23 25 27 29 30 32 33 33 34 34 34 34 34 35 35 35 35 36 37 38 39 41 43 45
19 19 19 19 19 18 18 18 18 18 18 19 21 21 21 21 21 21 21 21 21 22 22 23 23 23 24 25 25 26 26 27 27 28 28 29 29 28 27 26 25 25 25 26 26 26 25 23 21 21 20 19 19 19 19 19 20 20 21 21 20 21 21 23 26 29 31 32 32 33 33 34 34 34 34 34 34 34 34 35 36 36 37 38 39 40
19 19 19 19 19 19 19 19 19 19 20 20 20 21 21 21 21 20 20 21 21 21 22 22 23 23 23 24 24 24 25 26 27 28 29 28 28 27 26 26 26 26 27 27 26 25 24 22 21 20 20 19 19 20 20 19 20 21 21 21 20 21 22 24 26 29 32 32 32 33 33 34 34 34 34 34 34 34 35 35 36 36 37 37 37 37
20 19 18 18 18 18 18 18 20 21 21 20 20 20 20 20 20 20 20 20 21 21 21 21 21 22 22 22 23 24 25 26 27 27 27 27 27 27 27 28 28 28 27 25 24 23 22 22 21 21 20 20 20 19 19 19 20 21 21 21 21 21 23 25 27 30 31 31 32 33 33 33 33 33 33 34 34 34 36 36 37 37 37 37 37 38
19 19 18 18 18 18 19 20 20 20 20 19 19 19 19 20 20 20 21 21 21 21 21 21 21 21 21 22 23 23 24 25 25 25 26 26 27 28 29 29 28 27 25 24 22 22 22 22 22 21 21 21 21 20 20 20 20 20 21 21 21 22 22 24 27 30 30 31 31 32 32 32 32 33 33 34 34 34 35 36 37 37 38 37 38 38
19 19 19 19 19 19 20 20 19 19 19 19 19 19 19 20 20 21 21 21 21 21 21 21 22 22 22 22 22 22 22 23 24 25 26 29 30 30 28 27 26 25 24 23 22 21 21 22 21 21 21 22 21 21 21 20 20 20 20 21 23 23 24 26 28 29 30 30 31 31 32 32 32 33 33 33 34 34 34 34 35 36 37 38 38 39
19 19 19 19 19 19 19 19 19 19 18 19 19 19 19 20 21 21 21 21 21 21 21 21 21 21 21 21 21 21 21 21 23 25 27 28 29 28 26 25 24 24 23 23 22 22 21 21 21 22 22 22 22 21 21 20 20 21 22 24 26 28 29 29 29 29 29 30 30 31 32 32 32 32 32 32 33 33 33 34 34 35 36 37 38 39
19 19 19 19 19 19 19 19 19 18 18 18 18 19 19 20 20 21 21 21 21 21 21 22 22 21 21 21 21 20 20 21 22 24 25 25 25 25 25 24 23 23 22 22 22 22 22 22 22 22 23 22 21 21 21 21 21 22 24 25 26 27 27 28 29 29 30 30 30 31 32 32 32 32 32 32 32 33 33 34 34 35 36 37 37 38
19 19 19 18 18 18 18 18 18 18 18 18 18 19 19 20 20 20 21 21 21 21 21 21 22 21 21 21 20 20 21 21 22 23 23 23 23 23 22 22 22 22 22 21 22 22 22 23 24 24 23 22 21 21 21 21 22 22 23 24 25 25 26 27 28 30 30 30 30 31 31 32 32 32 32 32 32 32 33 33 34 34 35 37 37 38
19 19 19 18 18 18 18 18 18 18 18 18 18 19 19 20 21 21 21 21 21 21 21 21 21 21 21 21 21 21 21 22 22 22 22 22 22 21 21 21 21 21 21 21 22 22 23 24 25 25 24 23 22 21 21 21 22 22 23 24 25 25 25 27 29 30 30 31 31 31 31 31 31 31 31 31 31 32 32 33 34 34 36 37 38 38
19 19 19 19 18 18 18 18 18 18 18 18 18 18 19 20 21 22 21 21 21 21 21 21 21 21 21 20 20 21 22 22 22 21 21 21 21 20 20 19 19 19 19 20 20 21 22 24 25 26 26 25 24 23 22 22 22 23 23 24 25 25 26 27 29 30 30 30 30 31 31 31 31 31 31 31 31 31 32 32 33 34 35 37 38 39
19 19 19 19 18 18 18 18 18 18 18 18 18 19 19 20 20 21 21 21 21 21 21 21 21 21 20 20 20 21 21 21 21 21 21 21 20 20 19 18 18 17 17 17 18 19 21 23 25 26 27 26 25 24 23 22 23 23 23 24 25 25 26 27 29 30 30 30 30 30 30 30 31 31 31 31 31 31 31 32 32 33 35 37 38 39
19 19 19 19 18 18 18 18 18 18 18 19 19 19 20 20 20 20 20 21 21 21 21 21 21 21 20 20 20 20 21 21 20 20 21 21 20 19 18 17 17 16 16 16 16 18 21 21 21 22 23 24 25 25 25 24 23 23 23 23 24 25 26 27 28 29 30 29 29 30 30 30 30 30 31 31 30 30 30 31 32 33 34 36 38 39